Погода в Лене

Россия / Архангельская область     62°04′32″N   48°38′11″E
темп.,
°C
ветер,
м/с
пор.,
м/с
влажн.,
%
обл.,
%
осадки,
мм/ч
давл.,
гПа
погр.,
м
13 апреля, вт
вт1300:00+5юз41587100 0.0 1034453
03:00+5ююз4129568 0.0 1033338
06:00+4ююз41294100 0.0 1032354
09:00+7ююз41383100 0.0 1029488
12:00+9ююз51383100 0.0 1027673
15:00+9ююз51388100 0.0 1025785
18:00+10юз41187100 0.0 1024806
21:00+8ююз31296100 0.0 1024487
14 апреля, ср
ср1400:00+8ююз31197100 0.0 1023371
03:00+8ююз31097100 0.0 1022301
06:00+7ююз31194100 0.0 1021343
09:00+11юз41079100 0.1 1020489
12:00+15юз5126437 0.0 10191070
15:00+17юз6135566 0.0 10171472
18:00+15юз6136164 0.0 1016843
21:00+12юз51567100 0.0 1016755
15 апреля, чт
чт1500:00+11юз41371100 0.0 1015607
03:00+5ссз4989100 0.1 1018513
06:00+4сз369088 0.3 1020562
09:00+6ссз3567100 0.3 10211215
12:00+7ссз4546100 0.0 10221498
15:00+7ссз4543100 0.0 10231701
18:00+5с25496 0.0 1024240
21:00+2ссз22655 0.0 102621
16 апреля, пт
пт1600:000с22710 0.0 102723
03:00−1ссв12743 0.0 102824
06:00+1ссз016652 0.0 102887
09:00+5з124394 0.0 10271018
12:00+7зсз35375 0.0 10261887
15:00+7сз473376 0.0 10262099
18:00+5ссз595451 0.1 10261211
21:00+2ссз4106583 0.1 1028726
17 апреля, сб
сб1700:000с410715 0.0 1029630
03:00−1с49765 0.0 1031719
06:00−1ссв48705 0.0 1033804
09:00+1ссв34305 0.0 1033989
12:00+4ссз232171 0.0 10331516
15:00+5зсз352493 0.0 10312213
18:00+3зсз476174 0.0 10301034
21:00+2зсз41082100 0.0 1028871